Three Rivers, MI

8:23 AM EST on November 19, 2019 (GMT -0500)
Three Rivers Municipal-Haines

Weather History for KHAI - October, 2019

Change the Weather History Date:

Monday, October 21, 2019

  Actual Average Record
Temperature  
Mean Temperature 56 °F -  
Max Temperature 62 °F 58 °F 83 °F (1953)
Min Temperature 49 °F 38 °F 18 °F (1952)
Degree Days  
Heating Degree Days 10    
Growing Degree Days 6 (Base 50)    
Moisture  
Dew Point 52 °F    
Average Humidity 82    
Maximum Humidity 90    
Minimum Humidity 64    
Precipitation  
Precipitation 0.00 in - - ()
Sea Level Pressure  
Sea Level Pressure 29.72 in    
Wind  
Wind Speed 6 mph (SSE)    
Max Wind Speed 20 mph    
Max Gust Speed 29 mph    
Visibility 9 miles    
Events Rain    
Averages and records for this station are not official NWS values.
T = Trace of Precipitation, MM = Missing Value Source: NWS Daily Summary

Daily Weather History Graph

Daily Weather History Graph

Search for Another Location

Airport or City:

Astronomy

Oct. 21, 2019 Rise Set
Actual Time 8:01 AM EDT 6:51 PM EDT
Civil Twilight 7:33 AM EDT 7:20 PM EDT
Nautical Twilight 7:00 AM EDT 7:52 PM EDT
Astronomical Twilight 6:28 AM EDT 8:24 PM EDT
Moon No Moon Rise 3:22 PM EDT (10/21)
Length of Visible Light 11h 47m
Length of Day
10h 50m
Waning Gibbous, 48% of the Moon is Illuminated
Oct 21
Waning Gibbous
Oct 27
New
Nov 4
First Quarter
Nov 12
Full
Nov 19
Last Quarter

Hourly Weather History & Observations

Time (EDT) Temp. Dew Point Humidity Pressure Visibility Wind Dir Wind Speed Gust Speed Precip Events Conditions
12:15 AM 51.6 °F 48.9 °F 90% 29.94 in 7.0 mi Calm Calm - N/A   Mostly Cloudy
12:19 AM 51.8 °F 48.9 °F 90% 29.94 in 10.0 mi Calm Calm - N/A   Mostly Cloudy
12:38 AM 51.6 °F 48.4 °F 89% 29.93 in 7.0 mi Calm Calm - N/A   Overcast
12:56 AM 52.3 °F 49.1 °F 89% 29.93 in 10.0 mi Calm Calm - N/A   Mostly Cloudy
1:15 AM 49.6 °F 46.6 °F 89% 29.93 in 7.0 mi Calm Calm - N/A   Scattered Clouds
1:35 AM 49.3 °F 46.4 °F 90% 29.92 in 7.0 mi Calm Calm - N/A   Scattered Clouds
1:36 AM 49.3 °F 46.6 °F 90% 29.92 in 7.0 mi Calm Calm - N/A   Scattered Clouds
1:59 AM 50.5 °F 47.1 °F 88% 29.92 in 7.0 mi Calm Calm - N/A   Scattered Clouds
2:17 AM 49.6 °F 46.6 °F 89% 29.91 in 7.0 mi ENE 3.5 mph - N/A   Scattered Clouds
2:35 AM 50.0 °F 47.3 °F 90% 29.90 in 10.0 mi East 4.6 mph - N/A   Scattered Clouds
2:55 AM 50.4 °F 47.3 °F 89% 29.89 in 10.0 mi East 4.6 mph - N/A   Scattered Clouds
2:56 AM 50.4 °F 47.3 °F 89% 29.89 in 10.0 mi East 4.6 mph - N/A   Scattered Clouds
3:15 AM 51.4 °F 48.4 °F 89% 29.89 in 10.0 mi ENE 3.5 mph - N/A   Scattered Clouds
3:20 AM 51.8 °F 48.6 °F 89% 29.89 in 10.0 mi Calm Calm - N/A   Scattered Clouds
3:38 AM 52.0 °F 48.4 °F 88% 29.89 in 10.0 mi Calm Calm - N/A   Mostly Cloudy
3:56 AM 52.5 °F 48.6 °F 86% 29.90 in 10.0 mi Calm Calm - N/A   Overcast
4:15 AM 51.8 °F 48.2 °F 88% 29.90 in 10.0 mi Calm Calm - N/A   Overcast
4:35 AM 52.2 °F 48.6 °F 88% 29.89 in 10.0 mi Calm Calm - N/A   Overcast
4:36 AM 52.2 °F 48.6 °F 88% 29.89 in 10.0 mi Calm Calm - N/A   Overcast
4:59 AM 53.8 °F 48.7 °F 83% 29.89 in 10.0 mi ESE 3.5 mph - N/A   Overcast
5:17 AM 54.5 °F 48.2 °F 79% 29.87 in 10.0 mi ESE 4.6 mph - N/A   Overcast
5:35 AM 55.9 °F 47.7 °F 74% 29.88 in 10.0 mi ESE 4.6 mph - N/A   Overcast
5:36 AM 55.9 °F 47.7 °F 74% 29.88 in 10.0 mi ESE 4.6 mph - N/A   Overcast
5:56 AM 56.3 °F 47.3 °F 72% 29.87 in 10.0 mi ESE 6.9 mph - N/A   Overcast
6:15 AM 56.3 °F 46.6 °F 70% 29.85 in 10.0 mi ESE 8.1 mph - N/A   Overcast
6:20 AM 56.3 °F 46.0 °F 68% 29.85 in 10.0 mi ESE 6.9 mph - N/A   Overcast
6:37 AM 56.3 °F 45.1 °F 66% 29.85 in 10.0 mi ESE 8.1 mph - N/A   Overcast
6:56 AM 55.8 °F 44.8 °F 67% 29.85 in 10.0 mi ESE 6.9 mph - N/A   Overcast
7:15 AM 56.3 °F 44.4 °F 64% 29.83 in 10.0 mi ESE 8.1 mph - N/A   Overcast
7:16 AM 56.3 °F 44.4 °F 64% 29.83 in 10.0 mi ESE 8.1 mph - N/A   Overcast
7:35 AM 56.1 °F 44.6 °F 65% 29.81 in 10.0 mi ESE 9.2 mph - N/A   Overcast
7:59 AM 55.9 °F 45.0 °F 67% 29.81 in 10.0 mi SE 11.5 mph 16.1 mph N/A   Overcast
8:17 AM 56.1 °F 45.5 °F 68% 29.79 in 10.0 mi ESE 8.1 mph - N/A   Mostly Cloudy
8:35 AM 55.9 °F 46.6 °F 71% 29.80 in 10.0 mi SE 9.2 mph - N/A   Mostly Cloudy
8:36 AM 55.9 °F 46.6 °F 71% 29.80 in 10.0 mi SE 9.2 mph - N/A   Mostly Cloudy
8:55 AM 56.3 °F 47.7 °F 73% 29.80 in 10.0 mi SE 9.2 mph - N/A   Mostly Cloudy
8:56 AM 56.3 °F 47.7 °F 73% 29.80 in 10.0 mi SE 8.1 mph - N/A   Mostly Cloudy
9:15 AM 56.5 °F 48.7 °F 75% 29.79 in 10.0 mi SE 10.4 mph - N/A   Mostly Cloudy
9:38 AM 56.7 °F 49.3 °F 76% 29.78 in 10.0 mi SE 12.7 mph 18.4 mph N/A   Mostly Cloudy
9:56 AM 57.2 °F 50.0 °F 77% 29.77 in 10.0 mi ESE 12.7 mph 17.3 mph N/A   Mostly Cloudy
10:15 AM 57.6 °F 50.4 °F 77% 29.75 in 10.0 mi SE 9.2 mph 17.3 mph N/A   Scattered Clouds
10:16 AM 57.6 °F 50.4 °F 77% 29.75 in 10.0 mi SE 9.2 mph 17.3 mph N/A   Scattered Clouds
10:35 AM 58.1 °F 51.3 °F 78% 29.73 in 10.0 mi SE 10.4 mph 16.1 mph N/A   Clear
10:59 AM 59.2 °F 52.3 °F 78% 29.72 in 10.0 mi SE 12.7 mph - N/A   Scattered Clouds
11:17 AM 59.4 °F 53.1 °F 80% 29.73 in 10.0 mi SSE 13.8 mph 23.0 mph N/A Rain Light Rain
11:35 AM 59.0 °F 53.6 °F 82% 29.72 in 10.0 mi SSE 10.4 mph 21.9 mph N/A   Drizzle
11:36 AM 59.0 °F 53.8 °F 83% 29.72 in 10.0 mi SSE 12.7 mph 18.4 mph N/A   Drizzle
11:55 AM 58.5 °F 54.3 °F 86% 29.71 in 7.0 mi SSE 15.0 mph 23.0 mph N/A Rain Light Rain
12:15 PM 58.5 °F 54.9 °F 88% 29.69 in 10.0 mi SSE 10.4 mph 24.2 mph N/A Rain Light Rain
12:38 PM 59.0 °F 55.4 °F 88% 29.66 in 10.0 mi SE 13.8 mph 23.0 mph N/A Rain Light Rain
12:56 PM 59.0 °F 55.4 °F 88% 29.67 in 5.0 mi SSE 13.8 mph 23.0 mph N/A Rain Rain
1:15 PM 59.0 °F 55.6 °F 88% 29.62 in 7.0 mi SSE 18.4 mph 26.5 mph N/A Rain Light Rain
1:35 PM 59.2 °F 55.8 °F 88% 29.60 in 10.0 mi SE 16.1 mph 24.2 mph N/A Rain Light Rain
1:59 PM 59.4 °F 55.8 °F 88% 29.58 in 10.0 mi South 16.1 mph 26.5 mph N/A Rain Light Rain
2:17 PM 59.9 °F 55.9 °F 87% 29.57 in 10.0 mi South 12.7 mph 24.2 mph N/A Rain Light Rain
2:35 PM 60.3 °F 56.3 °F 87% 29.57 in 10.0 mi South 15.0 mph 26.5 mph N/A   Overcast
2:55 PM 60.8 °F 56.3 °F 85% 29.57 in 10.0 mi South 13.8 mph 24.2 mph N/A   Overcast
2:56 PM 60.8 °F 56.3 °F 85% 29.58 in 10.0 mi South 16.1 mph 24.2 mph N/A   Overcast
3:15 PM 60.8 °F 56.3 °F 85% 29.58 in 10.0 mi South 13.8 mph 20.7 mph N/A   Overcast
3:20 PM 61.0 °F 56.5 °F 85% 29.59 in 10.0 mi South 15.0 mph 23.0 mph N/A   Overcast
3:38 PM 61.2 °F 56.7 °F 85% 29.57 in 10.0 mi South 19.6 mph 28.8 mph N/A   Overcast
3:56 PM 61.7 °F 57.2 °F 85% 29.57 in 10.0 mi South 16.1 mph 23.0 mph N/A   Overcast
4:15 PM 61.5 °F 57.2 °F 86% 29.59 in 7.0 mi South 17.3 mph 28.8 mph N/A Rain Rain
4:35 PM 61.3 °F 57.7 °F 88% 29.58 in 10.0 mi South 17.3 mph 27.6 mph N/A   Overcast
4:36 PM 61.3 °F 57.7 °F 88% 29.58 in 10.0 mi South 18.4 mph 27.6 mph N/A   Overcast
4:59 PM 61.2 °F 57.9 °F 89% 29.57 in 3.0 mi South 13.8 mph 25.3 mph N/A Rain Light Rain
5:17 PM 61.2 °F 58.1 °F 90% 29.56 in 5.0 mi South 16.1 mph 21.9 mph N/A Rain Light Rain
5:35 PM 61.7 °F 58.1 °F 88% 29.55 in 10.0 mi SSE 12.7 mph 20.7 mph N/A   Overcast
5:55 PM 62.2 °F 58.1 °F 86% 29.55 in 10.0 mi South 13.8 mph 18.4 mph N/A   Overcast
5:56 PM 62.2 °F 58.1 °F 86% 29.55 in 10.0 mi South 13.8 mph 18.4 mph N/A   Overcast
6:15 PM 62.6 °F 58.3 °F 86% 29.55 in 10.0 mi South 12.7 mph - N/A   Overcast
6:20 PM 62.8 °F 58.1 °F 85% 29.54 in 10.0 mi South 11.5 mph - N/A   Overcast
6:38 PM 62.8 °F 58.1 °F 85% 29.55 in 10.0 mi South 12.7 mph 19.6 mph N/A   Overcast
6:56 PM 62.8 °F 58.3 °F 85% 29.56 in 7.0 mi WSW 6.9 mph 20.7 mph N/A Rain Light Rain
7:15 PM 62.1 °F 57.4 °F 85% 29.55 in 10.0 mi SSW 5.8 mph 18.4 mph N/A   Overcast
7:16 PM 62.1 °F 57.4 °F 85% 29.55 in 10.0 mi SSW 4.6 mph 18.4 mph N/A   Overcast
7:35 PM 61.7 °F 58.5 °F 89% 29.56 in 10.0 mi SSW 13.8 mph 19.6 mph N/A   Overcast
7:59 PM 62.6 °F 58.1 °F 85% 29.56 in 10.0 mi SSW 10.4 mph - N/A   Overcast
8:17 PM 62.8 °F 57.7 °F 84% 29.58 in 10.0 mi SSW 12.7 mph 16.1 mph N/A   Overcast
8:35 PM 62.6 °F 56.8 °F 81% 29.59 in 10.0 mi SW 15.0 mph 19.6 mph N/A   Overcast
8:36 PM 62.6 °F 56.7 °F 81% 29.59 in 10.0 mi SW 13.8 mph 18.4 mph N/A   Overcast
8:55 PM 61.7 °F 56.1 °F 82% 29.59 in 10.0 mi SSW 15.0 mph 21.9 mph N/A   Scattered Clouds
9:15 PM 61.0 °F 55.2 °F 81% 29.58 in 10.0 mi SSW 16.1 mph 23.0 mph N/A   Clear
9:38 PM 60.8 °F 55.2 °F 82% 29.58 in 10.0 mi SW 12.7 mph 21.9 mph N/A   Scattered Clouds
9:56 PM 61.0 °F 55.4 °F 82% 29.59 in 10.0 mi SSW 13.8 mph 18.4 mph N/A   Mostly Cloudy
10:15 PM 60.8 °F 55.4 °F 82% 29.59 in 10.0 mi SW 11.5 mph 19.6 mph N/A   Scattered Clouds
10:35 PM 56.1 °F 49.1 °F 77% 29.62 in 5.0 mi WSW 10.4 mph 26.5 mph N/A Rain Heavy Rain
10:36 PM 55.6 °F 49.1 °F 79% 29.62 in 5.0 mi WSW 10.4 mph 25.3 mph N/A Rain Rain
10:58 PM 53.8 °F 49.1 °F 84% 29.64 in 10.0 mi SW 6.9 mph - N/A   Mostly Cloudy
11:17 PM 53.1 °F 48.7 °F 85% 29.65 in 10.0 mi SW 5.8 mph - N/A   Scattered Clouds
11:35 PM 52.5 °F 48.2 °F 85% 29.65 in 10.0 mi SW 4.6 mph - N/A   Clear
11:36 PM 52.5 °F 48.2 °F 85% 29.65 in 10.0 mi SW 6.9 mph - N/A   Scattered Clouds
11:55 PM 53.2 °F 44.4 °F 72% 29.64 in 10.0 mi WSW 6.9 mph - N/A   Mostly Cloudy
11:56 PM 53.2 °F 44.2 °F 72% 29.64 in 10.0 mi WSW 5.8 mph - N/A   Mostly Cloudy